Location: Ailly
(50.0793°N, 1.9944°E)
Time: 17:51:52
(UTC+00:00)

Cosmos 1992 Rocket - Pass Details

Date: 15 January 2026
Orbit: 754 x 761 km, 74.0° (Epoch: 18 February)

Event Time Altitude Azimuth Distance (km) Brightness Sun altitude
Exits shadow 04:39:27 67° 102° (ESE) 823 4.2 -29.1°
Drops below altitude 10° 04:44:11 10° 149° (SSE) 2,285 6.8 -28.3°
Sets 04:46:33 0° 152° (SSE) 3,207 7.6 -27.9°
